Year,Month,Day,Hour,Minute,Value (Times are PST for temperature in C)
2015,06,21,00,00,13.60
2015,06,21,00,01,13.50
2015,06,21,00,02,13.50
2015,06,21,00,03,13.50
2015,06,21,00,04,13.50
2015,06,21,00,05,13.50
2015,06,21,00,06,13.40
2015,06,21,00,07,13.40
2015,06,21,00,08,13.40
2015,06,21,00,09,13.40
2015,06,21,00,10,13.40
2015,06,21,00,11,13.40
2015,06,21,00,12,13.40
2015,06,21,00,13,13.30
2015,06,21,00,14,13.30
2015,06,21,00,15,13.30
2015,06,21,00,16,13.30
2015,06,21,00,17,13.30
2015,06,21,00,18,13.30
2015,06,21,00,19,13.30
2015,06,21,00,20,13.30
2015,06,21,00,21,13.30
2015,06,21,00,22,13.30
2015,06,21,00,23,13.30
2015,06,21,00,24,13.30
2015,06,21,00,25,13.30
2015,06,21,00,26,13.30
2015,06,21,00,27,13.30
2015,06,21,00,28,13.20
2015,06,21,00,29,13.20
2015,06,21,00,30,13.20
2015,06,21,00,31,13.20
2015,06,21,00,32,13.10
2015,06,21,00,33,13.10
2015,06,21,00,34,13.10
2015,06,21,00,35,13.10
2015,06,21,00,36,13.10
2015,06,21,00,37,13.10
2015,06,21,00,38,13.10
2015,06,21,00,39,13.00
2015,06,21,00,40,13.00
2015,06,21,00,41,13.00
2015,06,21,00,42,12.90
2015,06,21,00,43,12.90
2015,06,21,00,44,12.90
2015,06,21,00,45,12.90
2015,06,21,00,46,12.90
2015,06,21,00,47,12.90
2015,06,21,00,48,12.90
2015,06,21,00,49,12.90
2015,06,21,00,50,12.90
2015,06,21,00,51,12.90
2015,06,21,00,52,12.90
2015,06,21,00,53,12.80
2015,06,21,00,54,12.80
2015,06,21,00,55,12.80
2015,06,21,00,56,12.80
2015,06,21,00,57,12.80
2015,06,21,00,58,12.80
2015,06,21,00,59,12.70
2015,06,21,01,00,12.70
2015,06,21,01,01,12.70
2015,06,21,01,02,12.60
2015,06,21,01,03,12.60
2015,06,21,01,04,12.60
2015,06,21,01,05,12.60
2015,06,21,01,06,12.60
2015,06,21,01,07,12.60
2015,06,21,01,08,12.60
2015,06,21,01,09,12.60
2015,06,21,01,10,12.70
2015,06,21,01,11,12.70
2015,06,21,01,12,12.70
2015,06,21,01,13,12.70
2015,06,21,01,14,12.70
2015,06,21,01,15,12.70
2015,06,21,01,16,12.70
2015,06,21,01,17,12.70
2015,06,21,01,18,12.70
2015,06,21,01,19,12.70
2015,06,21,01,20,12.60
2015,06,21,01,21,12.60
2015,06,21,01,22,12.60
2015,06,21,01,23,12.60
2015,06,21,01,24,12.50
2015,06,21,01,25,12.50
2015,06,21,01,26,12.50
2015,06,21,01,27,12.50
2015,06,21,01,28,12.50
2015,06,21,01,29,12.50
2015,06,21,01,30,12.50
2015,06,21,01,31,12.40
2015,06,21,01,32,12.40
2015,06,21,01,33,12.40
2015,06,21,01,34,12.30
2015,06,21,01,35,12.30
2015,06,21,01,36,12.20
2015,06,21,01,37,12.20
2015,06,21,01,38,12.20
2015,06,21,01,39,12.20
2015,06,21,01,40,12.20
2015,06,21,01,41,12.20
2015,06,21,01,42,12.20
2015,06,21,01,43,12.20
2015,06,21,01,44,12.20
2015,06,21,01,45,12.10
2015,06,21,01,46,12.10
2015,06,21,01,47,12.10
2015,06,21,01,48,12.00
2015,06,21,01,49,12.00
2015,06,21,01,50,11.90
2015,06,21,01,51,11.90
2015,06,21,01,52,11.90
2015,06,21,01,53,11.80
2015,06,21,01,54,11.80
2015,06,21,01,55,11.80
2015,06,21,01,56,11.80
2015,06,21,01,57,11.80
2015,06,21,01,58,11.80
2015,06,21,01,59,11.80
2015,06,21,02,00,11.80
2015,06,21,02,01,11.90
2015,06,21,02,02,11.90
2015,06,21,02,03,11.90
2015,06,21,02,04,12.00
2015,06,21,02,05,12.10
2015,06,21,02,06,12.10
2015,06,21,02,07,12.20
2015,06,21,02,08,12.20
2015,06,21,02,09,12.20
2015,06,21,02,10,12.20
2015,06,21,02,11,12.10
2015,06,21,02,12,12.10
2015,06,21,02,13,12.10
2015,06,21,02,14,12.00
2015,06,21,02,15,12.00
2015,06,21,02,16,11.90
2015,06,21,02,17,11.90
2015,06,21,02,18,11.80
2015,06,21,02,19,11.80
2015,06,21,02,20,11.70
2015,06,21,02,21,11.70
2015,06,21,02,22,11.70
2015,06,21,02,23,11.60
2015,06,21,02,24,11.60
2015,06,21,02,25,11.60
2015,06,21,02,26,11.60
2015,06,21,02,27,11.60
2015,06,21,02,28,11.60
2015,06,21,02,29,11.60
2015,06,21,02,30,11.60
2015,06,21,02,31,11.50
2015,06,21,02,32,11.50
2015,06,21,02,33,11.40
2015,06,21,02,34,11.40
2015,06,21,02,35,11.40
2015,06,21,02,36,11.40
2015,06,21,02,37,11.40
2015,06,21,02,38,11.50
2015,06,21,02,39,11.60
2015,06,21,02,40,11.60
2015,06,21,02,41,11.60
2015,06,21,02,42,11.60
2015,06,21,02,43,11.60
2015,06,21,02,44,11.60
2015,06,21,02,45,11.60
2015,06,21,02,46,11.60
2015,06,21,02,47,11.60
2015,06,21,02,48,11.60
2015,06,21,02,49,11.50
2015,06,21,02,50,11.50
2015,06,21,02,51,11.50
2015,06,21,02,52,11.50
2015,06,21,02,53,11.50
2015,06,21,02,54,11.50
2015,06,21,02,55,11.50
2015,06,21,02,56,11.60
2015,06,21,02,57,11.60
2015,06,21,02,58,11.60
2015,06,21,02,59,11.60
2015,06,21,03,00,11.60
2015,06,21,03,01,11.60
2015,06,21,03,02,11.60
2015,06,21,03,03,11.60
2015,06,21,03,04,11.60
2015,06,21,03,05,11.60
2015,06,21,03,06,11.60
2015,06,21,03,07,11.60
2015,06,21,03,08,11.60
2015,06,21,03,09,11.50
2015,06,21,03,10,11.50
2015,06,21,03,11,11.50
2015,06,21,03,12,11.50
2015,06,21,03,13,11.50
2015,06,21,03,14,11.50
2015,06,21,03,15,11.50
2015,06,21,03,16,11.40
2015,06,21,03,17,11.40
2015,06,21,03,18,11.40
2015,06,21,03,19,11.40
2015,06,21,03,20,11.40
2015,06,21,03,21,11.40
2015,06,21,03,22,11.40
2015,06,21,03,23,11.40
2015,06,21,03,24,11.40
2015,06,21,03,25,11.30
2015,06,21,03,26,11.30
2015,06,21,03,27,11.30
2015,06,21,03,28,11.30
2015,06,21,03,29,11.30
2015,06,21,03,30,11.30
2015,06,21,03,31,11.30
2015,06,21,03,32,11.30
2015,06,21,03,33,11.30
2015,06,21,03,34,11.30
2015,06,21,03,35,11.30
2015,06,21,03,36,11.30
2015,06,21,03,37,11.30
2015,06,21,03,38,11.30
2015,06,21,03,39,11.20
2015,06,21,03,40,11.20
2015,06,21,03,41,11.20
2015,06,21,03,42,11.20
2015,06,21,03,43,11.20
2015,06,21,03,44,11.20
2015,06,21,03,45,11.20
2015,06,21,03,46,11.20
2015,06,21,03,47,11.20
2015,06,21,03,48,11.20
2015,06,21,03,49,11.20
2015,06,21,03,50,11.20
2015,06,21,03,51,11.20
2015,06,21,03,52,11.20
2015,06,21,03,53,11.20
2015,06,21,03,54,11.20
2015,06,21,03,55,11.20
2015,06,21,03,56,11.10
2015,06,21,03,57,11.10
2015,06,21,03,58,11.10
2015,06,21,03,59,11.10
2015,06,21,04,00,11.10
2015,06,21,04,01,11.10
2015,06,21,04,02,11.10
2015,06,21,04,03,11.10
2015,06,21,05,02,10.70
2015,06,21,05,03,10.70
2015,06,21,05,04,10.70
2015,06,21,05,05,10.70
2015,06,21,05,06,10.60
2015,06,21,05,07,10.60
2015,06,21,05,08,10.60
2015,06,21,05,09,10.60
2015,06,21,05,10,10.60
2015,06,21,05,11,10.60
2015,06,21,05,12,10.60
2015,06,21,05,13,10.50
2015,06,21,05,14,10.50
2015,06,21,05,15,10.50
2015,06,21,05,16,10.50
2015,06,21,05,17,10.50
2015,06,21,05,18,10.40
2015,06,21,05,19,10.40
2015,06,21,05,20,10.40
2015,06,21,05,21,10.40
2015,06,21,05,22,10.40
2015,06,21,05,23,10.40
2015,06,21,05,24,10.40
2015,06,21,05,25,10.40
2015,06,21,05,26,10.40
2015,06,21,05,27,10.40
2015,06,21,05,28,10.40
2015,06,21,05,29,10.30
2015,06,21,05,30,10.30
2015,06,21,05,31,10.30
2015,06,21,05,32,10.20
2015,06,21,05,33,10.20
2015,06,21,05,34,10.20
2015,06,21,05,35,10.20
2015,06,21,05,36,10.20
2015,06,21,05,37,10.20
2015,06,21,05,38,10.10
2015,06,21,05,39,10.10
2015,06,21,05,40,10.10
2015,06,21,05,41,10.10
2015,06,21,05,42,10.10
2015,06,21,05,43,10.10
2015,06,21,05,44,10.10
2015,06,21,05,45,10.10
2015,06,21,05,46,10.10
2015,06,21,05,47,10.10
2015,06,21,05,48,10.10
2015,06,21,05,49,10.10
2015,06,21,05,50,10.10
2015,06,21,05,51,10.10
2015,06,21,05,52,10.10
2015,06,21,05,53,10.10
2015,06,21,05,54,10.10
2015,06,21,05,55,10.10
2015,06,21,05,56,10.20
2015,06,21,05,57,10.20
2015,06,21,05,58,10.20
2015,06,21,05,59,10.30
2015,06,21,06,00,10.30
2015,06,21,06,01,10.30
2015,06,21,06,02,10.30
2015,06,21,06,03,10.40
2015,06,21,06,04,10.40
2015,06,21,06,05,10.40
2015,06,21,06,06,10.50
2015,06,21,06,07,10.50
2015,06,21,06,08,10.50
2015,06,21,06,09,10.60
2015,06,21,06,10,10.60
2015,06,21,06,11,10.60
2015,06,21,06,12,10.70
2015,06,21,06,13,10.70
2015,06,21,06,14,10.70
2015,06,21,06,15,10.70
2015,06,21,06,16,10.80
2015,06,21,06,17,10.80
2015,06,21,06,18,10.80
2015,06,21,06,19,10.90
2015,06,21,06,20,10.90
2015,06,21,06,21,10.90
2015,06,21,06,22,11.00
2015,06,21,06,23,11.00
2015,06,21,06,24,11.10
2015,06,21,06,25,11.10
2015,06,21,06,26,11.10
2015,06,21,06,27,11.20
2015,06,21,06,28,11.20
2015,06,21,06,29,11.30
2015,06,21,06,30,11.30
2015,06,21,06,31,11.30
2015,06,21,06,32,11.40
2015,06,21,06,33,11.40
2015,06,21,06,34,11.50
2015,06,21,06,35,11.50
2015,06,21,06,36,11.60
2015,06,21,06,37,11.60
2015,06,21,06,38,11.60
2015,06,21,06,39,11.70
2015,06,21,06,40,11.80
2015,06,21,06,41,11.90
2015,06,21,06,42,12.00
2015,06,21,06,43,12.10
2015,06,21,06,44,12.10
2015,06,21,06,45,12.10
2015,06,21,06,46,12.20
2015,06,21,06,47,12.20
2015,06,21,06,48,12.20
2015,06,21,06,49,12.10
2015,06,21,06,50,12.10
2015,06,21,06,51,12.10
2015,06,21,06,52,12.10
2015,06,21,06,53,12.20
2015,06,21,06,54,12.20
2015,06,21,06,55,12.20
2015,06,21,06,56,12.20
2015,06,21,06,57,12.30
2015,06,21,06,58,12.30
2015,06,21,06,59,12.30
2015,06,21,07,00,12.40
2015,06,21,07,01,12.40
2015,06,21,07,02,12.50
2015,06,21,07,03,12.50
2015,06,21,07,04,12.60
2015,06,21,07,05,12.60
2015,06,21,07,06,12.70
2015,06,21,07,07,12.70
2015,06,21,07,08,12.70
2015,06,21,07,09,12.80
2015,06,21,07,10,12.80
2015,06,21,07,11,12.80
2015,06,21,07,12,12.80
2015,06,21,07,13,12.80
2015,06,21,07,14,12.80
2015,06,21,07,15,12.90
2015,06,21,07,16,12.90
2015,06,21,07,17,12.90
2015,06,21,07,18,13.00
2015,06,21,07,19,13.00
2015,06,21,07,20,13.00
2015,06,21,07,21,13.00
2015,06,21,07,22,13.10
2015,06,21,07,23,13.10
2015,06,21,07,24,13.10
2015,06,21,07,25,13.20
2015,06,21,07,26,13.20
2015,06,21,07,27,13.30
2015,06,21,07,28,13.30
2015,06,21,07,29,13.30
2015,06,21,07,30,13.30
2015,06,21,07,31,13.30
2015,06,21,07,32,13.30
2015,06,21,07,33,13.30
2015,06,21,07,34,13.30
2015,06,21,07,35,13.30
2015,06,21,07,36,13.30
2015,06,21,07,37,13.40
2015,06,21,07,38,13.40
2015,06,21,07,39,13.50
2015,06,21,07,40,13.60
2015,06,21,07,41,13.70
2015,06,21,07,42,13.80
2015,06,21,07,43,13.80
2015,06,21,07,44,13.90
2015,06,21,07,45,13.90
2015,06,21,07,46,13.90
2015,06,21,07,47,13.90
2015,06,21,07,48,14.00
2015,06,21,07,49,14.10
2015,06,21,07,50,14.10
2015,06,21,07,51,14.20
2015,06,21,07,52,14.20
2015,06,21,07,53,14.20
2015,06,21,07,54,14.10
2015,06,21,07,55,14.10
2015,06,21,07,56,14.00
2015,06,21,07,57,14.00
2015,06,21,07,58,14.00
2015,06,21,07,59,14.10
2015,06,21,08,00,14.10
2015,06,21,08,01,14.10
2015,06,21,08,02,14.10
2015,06,21,08,03,14.10
2015,06,21,08,04,14.10
2015,06,21,08,05,14.20
2015,06,21,08,06,14.20
2015,06,21,08,07,14.30
2015,06,21,08,08,14.30
2015,06,21,08,09,14.30
2015,06,21,08,10,14.40
2015,06,21,08,11,14.40
2015,06,21,08,12,14.50
2015,06,21,08,13,14.50
2015,06,21,08,14,14.50
2015,06,21,08,15,14.50
2015,06,21,08,16,14.50
2015,06,21,08,17,14.40
2015,06,21,08,18,14.40
2015,06,21,08,19,14.50
2015,06,21,08,20,14.50
2015,06,21,08,21,14.60
2015,06,21,08,22,14.70
2015,06,21,08,23,14.80
2015,06,21,08,24,14.90
2015,06,21,08,25,14.90
2015,06,21,08,26,14.90
2015,06,21,08,27,14.90
2015,06,21,08,28,14.80
2015,06,21,08,29,14.80
2015,06,21,08,30,14.80
2015,06,21,08,31,14.80
2015,06,21,08,32,14.70
2015,06,21,08,33,14.70
2015,06,21,08,34,14.70
2015,06,21,08,35,14.70
2015,06,21,08,36,14.70
2015,06,21,08,37,14.80
2015,06,21,08,38,14.70
2015,06,21,08,39,14.70
2015,06,21,08,40,14.80
2015,06,21,08,41,14.80
2015,06,21,08,42,14.90
2015,06,21,08,43,15.00
2015,06,21,08,44,15.10
2015,06,21,08,45,15.10
2015,06,21,08,46,15.10
2015,06,21,08,47,15.00
2015,06,21,08,48,15.10
2015,06,21,08,49,15.10
2015,06,21,08,50,15.20
2015,06,21,08,51,15.20
2015,06,21,08,52,15.20
2015,06,21,08,53,15.30
2015,06,21,08,54,15.30
2015,06,21,08,55,15.30
2015,06,21,08,56,15.30
2015,06,21,08,57,15.30
2015,06,21,08,58,15.30
2015,06,21,08,59,15.40
2015,06,21,09,00,15.50
2015,06,21,09,01,15.50
2015,06,21,09,02,15.60
2015,06,21,09,03,15.60
2015,06,21,09,04,15.70
2015,06,21,09,05,15.70
2015,06,21,09,06,15.70
2015,06,21,09,07,15.70
2015,06,21,09,08,15.80
2015,06,21,09,09,16.00
2015,06,21,09,10,16.10
2015,06,21,09,11,16.20
2015,06,21,09,12,16.30
2015,06,21,09,13,16.30
2015,06,21,09,14,16.30
2015,06,21,09,15,16.20
2015,06,21,09,16,16.10
2015,06,21,09,17,16.00
2015,06,21,09,18,16.00
2015,06,21,09,19,16.00
2015,06,21,09,20,16.10
2015,06,21,09,21,16.10
2015,06,21,09,22,16.20
2015,06,21,09,23,16.30
2015,06,21,09,24,16.40
2015,06,21,09,25,16.50
2015,06,21,09,26,16.60
2015,06,21,09,27,16.60
2015,06,21,09,28,16.70
2015,06,21,09,29,16.70
2015,06,21,09,30,16.80
2015,06,21,09,31,16.90
2015,06,21,09,32,16.90
2015,06,21,09,33,16.90
2015,06,21,09,34,16.80
2015,06,21,09,35,16.80
2015,06,21,09,36,16.80
2015,06,21,09,37,16.80
2015,06,21,09,38,16.80
2015,06,21,09,39,16.80
2015,06,21,09,40,16.80
2015,06,21,09,41,16.80
2015,06,21,09,42,16.70
2015,06,21,09,43,16.60
2015,06,21,09,44,16.50
2015,06,21,09,45,16.50
2015,06,21,09,46,16.40
2015,06,21,09,47,16.40
2015,06,21,09,48,16.40
2015,06,21,09,49,16.50
2015,06,21,09,50,16.60
2015,06,21,09,51,16.70
2015,06,21,09,52,16.80
2015,06,21,09,53,16.80
2015,06,21,09,54,16.70
2015,06,21,09,55,16.60
2015,06,21,09,56,16.70
2015,06,21,09,57,16.70
2015,06,21,09,58,16.70
2015,06,21,09,59,16.70
2015,06,21,10,00,16.70
2015,06,21,10,01,16.70
2015,06,21,10,02,16.80
2015,06,21,10,03,16.90
2015,06,21,10,04,16.90
2015,06,21,10,05,16.90
2015,06,21,10,06,16.80
2015,06,21,10,07,16.90
2015,06,21,10,08,17.00
2015,06,21,10,09,17.00
2015,06,21,10,10,17.00
2015,06,21,10,11,17.00
2015,06,21,10,12,17.00
2015,06,21,10,13,17.10
2015,06,21,10,14,17.00
2015,06,21,10,15,17.00
2015,06,21,10,16,17.00
2015,06,21,10,17,17.00
2015,06,21,10,18,17.10
2015,06,21,10,19,17.10
2015,06,21,10,20,17.10
2015,06,21,10,21,17.10
2015,06,21,10,22,17.10
2015,06,21,10,23,17.10
2015,06,21,10,24,17.10
2015,06,21,10,25,17.20
2015,06,21,10,26,17.20
2015,06,21,10,27,17.20
2015,06,21,10,28,17.20
2015,06,21,10,29,17.20
2015,06,21,10,30,17.20
2015,06,21,10,31,17.10
2015,06,21,10,32,17.10
2015,06,21,10,33,17.20
2015,06,21,10,34,17.20
2015,06,21,10,35,17.30
2015,06,21,10,36,17.30
2015,06,21,10,37,17.40
2015,06,21,10,38,17.40
2015,06,21,10,39,17.40
2015,06,21,10,40,17.40
2015,06,21,10,41,17.40
2015,06,21,10,42,17.40
2015,06,21,10,43,17.40
2015,06,21,10,44,17.40
2015,06,21,10,45,17.40
2015,06,21,10,46,17.40
2015,06,21,10,47,17.40
2015,06,21,10,48,17.40
2015,06,21,10,49,17.40
2015,06,21,10,50,17.40
2015,06,21,10,51,17.40
2015,06,21,10,52,17.50
2015,06,21,10,53,17.50
2015,06,21,10,54,17.50
2015,06,21,10,55,17.60
2015,06,21,10,56,17.60
2015,06,21,10,57,17.60
2015,06,21,10,58,17.60
2015,06,21,10,59,17.60
2015,06,21,11,00,17.60
2015,06,21,11,01,17.60
2015,06,21,11,02,17.60
2015,06,21,11,03,17.60
2015,06,21,11,04,17.70
2015,06,21,11,05,17.80
2015,06,21,11,06,17.80
2015,06,21,11,07,17.90
2015,06,21,11,08,18.00
2015,06,21,11,09,18.20
2015,06,21,11,10,18.20
2015,06,21,11,11,18.30
2015,06,21,11,12,18.40
2015,06,21,11,13,18.40
2015,06,21,11,14,18.50
2015,06,21,11,15,18.60
2015,06,21,11,16,18.70
2015,06,21,11,17,18.70
2015,06,21,11,18,18.70
2015,06,21,11,19,18.70
2015,06,21,11,20,18.70
2015,06,21,11,21,18.70
2015,06,21,11,22,18.70
2015,06,21,11,23,18.80
2015,06,21,11,24,18.80
2015,06,21,11,25,18.90
2015,06,21,11,26,18.90
2015,06,21,11,27,18.90
2015,06,21,11,28,18.90
2015,06,21,11,29,18.90
2015,06,21,11,30,19.00
2015,06,21,11,31,19.00
2015,06,21,11,32,19.10
2015,06,21,11,33,19.10
2015,06,21,11,34,19.10
2015,06,21,11,35,19.20
2015,06,21,11,36,19.20
2015,06,21,11,37,19.20
2015,06,21,11,38,19.30
2015,06,21,11,39,19.40
2015,06,21,11,40,19.50
2015,06,21,11,41,19.60
2015,06,21,11,42,19.70
2015,06,21,11,43,19.80
2015,06,21,11,44,19.80
2015,06,21,11,45,19.80
2015,06,21,11,46,19.80
2015,06,21,11,47,19.90
2015,06,21,11,48,19.90
2015,06,21,11,49,19.90
2015,06,21,11,50,19.90
2015,06,21,11,51,19.80
2015,06,21,11,52,19.70
2015,06,21,11,53,19.80
2015,06,21,11,54,19.80
2015,06,21,11,55,19.80
2015,06,21,11,56,19.80
2015,06,21,11,57,19.80
2015,06,21,11,58,19.90
2015,06,21,11,59,19.90
2015,06,21,12,00,20.00
2015,06,21,12,01,20.00
2015,06,21,12,02,20.10
2015,06,21,12,03,20.20
2015,06,21,12,04,20.30
2015,06,21,12,05,20.40
2015,06,21,12,06,20.50
2015,06,21,12,07,20.60
2015,06,21,12,08,20.80
2015,06,21,12,09,20.90
2015,06,21,12,10,20.90
2015,06,21,12,11,20.90
2015,06,21,12,12,20.90
2015,06,21,12,13,21.00
2015,06,21,12,14,21.10
2015,06,21,12,15,21.20
2015,06,21,12,16,21.30
2015,06,21,12,17,21.40
2015,06,21,12,18,21.50
2015,06,21,12,19,21.50
2015,06,21,12,20,21.60
2015,06,21,12,21,21.60
2015,06,21,12,22,21.50
2015,06,21,12,23,21.50
2015,06,21,12,24,21.60
2015,06,21,12,25,21.60
2015,06,21,12,26,21.60
2015,06,21,12,27,21.70
2015,06,21,12,28,21.80
2015,06,21,12,29,21.80
2015,06,21,12,30,21.80
2015,06,21,12,31,21.70
2015,06,21,12,32,21.70
2015,06,21,12,33,21.50
2015,06,21,12,34,21.40
2015,06,21,12,35,21.30
2015,06,21,12,36,21.30
2015,06,21,12,37,21.30
2015,06,21,12,38,21.30
2015,06,21,12,39,21.30
2015,06,21,12,40,21.30
2015,06,21,12,41,21.30
2015,06,21,12,42,21.40
2015,06,21,12,43,21.40
2015,06,21,12,44,21.30
2015,06,21,12,45,21.40
2015,06,21,12,46,21.40
2015,06,21,12,47,21.40
2015,06,21,12,48,21.30
2015,06,21,12,49,21.30
2015,06,21,12,50,21.30
2015,06,21,12,51,21.30
2015,06,21,12,52,21.30
2015,06,21,12,53,21.40
2015,06,21,12,54,21.40
2015,06,21,12,55,21.40
2015,06,21,12,56,21.30
2015,06,21,12,57,21.30
2015,06,21,12,58,21.30
2015,06,21,12,59,21.30
2015,06,21,13,00,21.30
2015,06,21,13,01,21.30
2015,06,21,13,02,21.30
2015,06,21,13,03,21.40
2015,06,21,13,04,21.50
2015,06,21,13,05,21.60
2015,06,21,13,06,21.70
2015,06,21,13,07,21.80
2015,06,21,13,08,21.80
2015,06,21,13,09,21.70
2015,06,21,13,10,21.70
2015,06,21,13,11,21.70
2015,06,21,13,12,21.70
2015,06,21,13,13,21.70
2015,06,21,13,14,21.70
2015,06,21,13,15,21.70
2015,06,21,13,16,21.80
2015,06,21,13,17,21.90
2015,06,21,13,18,22.00
2015,06,21,13,19,22.20
2015,06,21,13,20,22.20
2015,06,21,13,21,22.30
2015,06,21,13,22,22.30
2015,06,21,13,23,22.30
2015,06,21,13,24,22.30
2015,06,21,13,25,22.30
2015,06,21,13,26,22.30
2015,06,21,13,27,22.30
2015,06,21,13,28,22.30
2015,06,21,13,29,22.30
2015,06,21,13,30,22.20
2015,06,21,13,31,22.20
2015,06,21,13,32,22.20
2015,06,21,13,33,22.20
2015,06,21,13,34,22.10
2015,06,21,13,35,22.10
2015,06,21,13,36,22.10
2015,06,21,13,37,22.20
2015,06,21,13,38,22.20
2015,06,21,13,39,22.20
2015,06,21,13,40,22.30
2015,06,21,13,41,22.40
2015,06,21,13,42,22.50
2015,06,21,13,43,22.50
2015,06,21,13,44,22.60
2015,06,21,13,45,22.70
2015,06,21,13,46,22.80
2015,06,21,13,47,22.80
2015,06,21,13,48,22.90
2015,06,21,13,49,22.90
2015,06,21,13,50,22.80
2015,06,21,13,51,22.90
2015,06,21,13,52,22.90
2015,06,21,13,53,23.00
2015,06,21,13,54,23.00
2015,06,21,13,55,23.10
2015,06,21,13,56,23.00
2015,06,21,13,57,23.00
2015,06,21,13,58,23.00
2015,06,21,13,59,23.10
2015,06,21,14,00,23.10
2015,06,21,14,01,23.20
2015,06,21,14,02,23.30
2015,06,21,14,03,23.40
2015,06,21,14,04,23.50
2015,06,21,14,05,23.60
2015,06,21,14,06,23.70
2015,06,21,14,07,23.60
2015,06,21,14,08,23.60
2015,06,21,14,09,23.50
2015,06,21,14,10,23.40
2015,06,21,14,11,23.40
2015,06,21,14,12,23.30
2015,06,21,14,13,23.30
2015,06,21,14,14,23.40
2015,06,21,14,15,23.50
2015,06,21,14,16,23.60
2015,06,21,14,17,23.60
2015,06,21,14,18,23.60
2015,06,21,14,19,23.60
2015,06,21,14,20,23.50
2015,06,21,14,21,23.30
2015,06,21,14,22,23.30
2015,06,21,14,23,23.40
2015,06,21,14,24,23.50
2015,06,21,14,25,23.60
2015,06,21,14,26,23.80
2015,06,21,14,27,23.90
2015,06,21,14,28,24.00
2015,06,21,14,29,24.00
2015,06,21,14,30,24.00
2015,06,21,14,31,23.90
2015,06,21,14,32,23.90
2015,06,21,14,33,23.90
2015,06,21,14,34,23.80
2015,06,21,14,35,23.80
2015,06,21,14,36,23.80
2015,06,21,14,37,23.80
2015,06,21,14,38,23.80
2015,06,21,14,39,23.80
2015,06,21,14,40,23.70
2015,06,21,14,41,23.70
2015,06,21,14,42,23.70
2015,06,21,14,43,23.60
2015,06,21,14,44,23.60
2015,06,21,14,45,23.70
2015,06,21,14,46,23.80
2015,06,21,14,47,23.80
2015,06,21,14,48,23.90
2015,06,21,14,49,24.00
2015,06,21,14,50,24.10
2015,06,21,14,51,24.20
2015,06,21,14,52,24.20
2015,06,21,14,53,24.20
2015,06,21,14,54,24.20
2015,06,21,14,55,24.10
2015,06,21,14,56,24.10
2015,06,21,14,57,24.00
2015,06,21,14,58,24.00
2015,06,21,14,59,24.00
2015,06,21,15,00,24.10
2015,06,21,15,01,24.10
2015,06,21,15,02,24.10
2015,06,21,15,03,24.10
2015,06,21,15,04,24.10
2015,06,21,15,05,24.10
2015,06,21,15,06,24.10
2015,06,21,15,07,24.10
2015,06,21,15,08,24.10
2015,06,21,15,09,24.00
2015,06,21,15,10,23.90
2015,06,21,15,11,23.90
2015,06,21,15,12,24.00
2015,06,21,15,13,24.00
2015,06,21,15,14,24.10
2015,06,21,15,15,24.10
2015,06,21,15,16,24.10
2015,06,21,15,17,24.10
2015,06,21,15,18,24.20
2015,06,21,15,19,24.20
2015,06,21,15,20,24.30
2015,06,21,15,21,24.30
2015,06,21,15,22,24.30
2015,06,21,15,23,24.40
2015,06,21,15,24,24.40
2015,06,21,15,25,24.40
2015,06,21,15,26,24.50
2015,06,21,15,27,24.50
2015,06,21,15,28,24.50
2015,06,21,15,29,24.40
2015,06,21,15,30,24.40
2015,06,21,15,31,24.40
2015,06,21,15,32,24.40
2015,06,21,15,33,24.40
2015,06,21,15,34,24.50
2015,06,21,15,35,24.50
2015,06,21,15,36,24.50
2015,06,21,15,37,24.50
2015,06,21,15,38,24.50
2015,06,21,15,39,24.40
2015,06,21,15,40,24.40
2015,06,21,15,41,24.40
2015,06,21,15,42,24.50
2015,06,21,15,43,24.50
2015,06,21,15,44,24.50
2015,06,21,15,45,24.40
2015,06,21,15,46,24.40
2015,06,21,15,47,24.30
2015,06,21,15,48,24.30
2015,06,21,15,49,24.30
2015,06,21,15,50,24.30
2015,06,21,15,51,24.30
2015,06,21,15,52,24.30
2015,06,21,15,53,24.30
2015,06,21,15,54,24.20
2015,06,21,15,55,24.20
2015,06,21,15,56,24.30
2015,06,21,15,57,24.40
2015,06,21,15,58,24.50
2015,06,21,15,59,24.70
2015,06,21,16,00,24.80
2015,06,21,16,01,24.80
2015,06,21,16,02,24.80
2015,06,21,16,03,24.80
2015,06,21,16,04,24.80
2015,06,21,16,05,24.70
2015,06,21,16,06,24.60
2015,06,21,16,07,24.60
2015,06,21,16,08,24.50
2015,06,21,16,09,24.50
2015,06,21,16,10,24.50
2015,06,21,16,11,24.40
2015,06,21,16,12,24.40
2015,06,21,16,13,24.40
2015,06,21,16,14,24.30
2015,06,21,16,15,24.30
2015,06,21,16,16,24.30
2015,06,21,16,17,24.30
2015,06,21,16,18,24.30
2015,06,21,16,19,24.30
2015,06,21,16,20,24.40
2015,06,21,16,21,24.40
2015,06,21,16,22,24.30
2015,06,21,16,23,24.30
2015,06,21,16,24,24.30
2015,06,21,16,25,24.30
2015,06,21,16,26,24.30
2015,06,21,16,27,24.20
2015,06,21,16,28,24.20
2015,06,21,16,29,24.20
2015,06,21,16,30,24.20
2015,06,21,16,31,24.20
2015,06,21,16,32,24.20
2015,06,21,16,33,24.20
2015,06,21,16,34,24.20
2015,06,21,16,35,24.30
2015,06,21,16,36,24.40
2015,06,21,16,37,24.40
2015,06,21,16,38,24.40
2015,06,21,16,39,24.40
2015,06,21,16,40,24.40
2015,06,21,16,41,24.40
2015,06,21,16,42,24.50
2015,06,21,16,43,24.50
2015,06,21,16,44,24.50
2015,06,21,16,45,24.50
2015,06,21,16,46,24.50
2015,06,21,16,47,24.50
2015,06,21,16,48,24.50
2015,06,21,16,49,24.40
2015,06,21,16,50,24.40
2015,06,21,16,51,24.30
2015,06,21,16,52,24.30
2015,06,21,16,53,24.30
2015,06,21,16,54,24.30
2015,06,21,16,55,24.30
2015,06,21,16,56,24.30
2015,06,21,16,57,24.20
2015,06,21,16,58,24.20
2015,06,21,16,59,24.20
2015,06,21,17,00,24.20
2015,06,21,17,01,24.20
2015,06,21,17,02,24.20
2015,06,21,17,03,24.20
2015,06,21,17,04,24.20
2015,06,21,17,05,24.20
2015,06,21,17,06,24.20
2015,06,21,17,07,24.30
2015,06,21,17,08,24.40
2015,06,21,17,09,24.40
2015,06,21,17,10,24.30
2015,06,21,17,11,24.30
2015,06,21,17,12,24.30
2015,06,21,17,13,24.30
2015,06,21,17,14,24.30
2015,06,21,17,15,24.30
2015,06,21,17,16,24.30
2015,06,21,17,17,24.30
2015,06,21,17,18,24.30
2015,06,21,17,19,24.30
2015,06,21,17,20,24.30
2015,06,21,17,21,24.20
2015,06,21,17,22,24.20
2015,06,21,17,23,24.20
2015,06,21,17,24,24.30
2015,06,21,17,25,24.30
2015,06,21,17,26,24.30
2015,06,21,17,27,24.30
2015,06,21,17,28,24.30
2015,06,21,17,29,24.30
2015,06,21,17,30,24.30
2015,06,21,17,31,24.30
2015,06,21,17,32,24.30
2015,06,21,17,33,24.30
2015,06,21,17,34,24.30
2015,06,21,17,35,24.40
2015,06,21,17,36,24.40
2015,06,21,17,37,24.40
2015,06,21,17,38,24.40
2015,06,21,17,39,24.40
2015,06,21,17,40,24.40
2015,06,21,17,41,24.50
2015,06,21,17,42,24.50
2015,06,21,17,43,24.50
2015,06,21,17,44,24.60
2015,06,21,17,45,24.60
2015,06,21,17,46,24.70
2015,06,21,17,47,24.70
2015,06,21,17,48,24.80
2015,06,21,17,49,24.80
2015,06,21,17,50,24.80
2015,06,21,17,51,24.80
2015,06,21,17,52,24.80
2015,06,21,17,53,24.70
2015,06,21,17,54,24.70
2015,06,21,17,55,24.70
2015,06,21,17,56,24.70
2015,06,21,17,57,24.70
2015,06,21,17,58,24.70
2015,06,21,17,59,24.70
2015,06,21,18,00,24.70
2015,06,21,18,01,24.70
2015,06,21,18,02,24.70
2015,06,21,18,03,24.70
2015,06,21,18,04,24.80
2015,06,21,18,05,24.80
2015,06,21,18,06,24.80
2015,06,21,18,07,24.80
2015,06,21,18,08,24.80
2015,06,21,18,09,24.70
2015,06,21,18,10,24.70
2015,06,21,18,11,24.60
2015,06,21,18,12,24.60
2015,06,21,18,13,24.60
2015,06,21,18,14,24.60
2015,06,21,18,15,24.70
2015,06,21,18,16,24.70
2015,06,21,18,17,24.80